Parsons, KS

8:03 AM CDT on August 23, 2017 (GMT -0500)
Tri-City

Weather History for KPPF - March, 2013

Change the Weather History Date:

Wednesday, March 6, 2013

  Actual Average Record
Temperature  
Mean Temperature 33 °F -  
Max Temperature 45 °F 55 °F 82 °F (1991)
Min Temperature 21 °F 32 °F 13 °F (1960)
Degree Days  
Heating Degree Days 32    
Moisture  
Dew Point 21 °F    
Average Humidity 61    
Maximum Humidity 78    
Minimum Humidity 39    
Precipitation  
Precipitation 0.00 in - - ()
Sea Level Pressure  
Sea Level Pressure 30.38 in    
Wind  
Wind Speed 4 mph (NNE)    
Max Wind Speed 7 mph    
Max Gust Speed -    
Visibility 10 miles    
Events      
Averages and records for this station are not official NWS values.
T = Trace of Precipitation, MM = Missing Value Source: NWS Daily Summary

Daily Weather History Graph

Daily Weather History Graph

Search for Another Location

Airport or City:

Trip Planner

Search our weather history database for the weather conditions in past years. The results will help you decide how hot, cold, wet, or windy it might be!

Date:

Astronomy

Mar. 06, 2013 Rise Set
Actual Time 6:45 AM CST 6:21 PM CST
Civil Twilight 6:19 AM CST 6:47 PM CST
Nautical Twilight 5:49 AM CST 7:17 PM CST
Astronomical Twilight 5:19 AM CST 7:47 PM CST
Moon 2:50 AM CST (3/6) 1:09 PM CST (3/6)
Length of Visible Light 12h 27m
Length of Day
11h 35m
Waning Crescent, 29% of the Moon is Illuminated
Mar 6
Waning Crescent
Mar 11
New
Mar 19
First Quarter
Mar 27
Full
Apr 2
Last Quarter

Hourly Weather History & Observations

Time (CST) Temp. Windchill Dew Point Humidity Pressure Visibility Wind Dir Wind Speed Gust Speed Precip Events Conditions
12:52 AM 26.1 °F 19.4 °F 19.0 °F 75% 30.40 in 10.0 mi North 5.8 mph - N/A   Clear
1:52 AM 24.1 °F 16.0 °F 17.1 °F 75% 30.43 in 10.0 mi NW 6.9 mph - N/A   Clear
2:52 AM 24.1 °F 18.2 °F 18.0 °F 77% 30.42 in 10.0 mi North 4.6 mph - N/A   Clear
3:52 AM 26.1 °F 18.4 °F 18.0 °F 71% 30.43 in 10.0 mi NNW 6.9 mph - N/A   Clear
4:52 AM 24.1 °F 18.2 °F 17.1 °F 75% 30.44 in 10.0 mi North 4.6 mph - N/A   Clear
5:52 AM 25.0 °F 18.1 °F 17.1 °F 72% 30.45 in 10.0 mi NNE 5.8 mph - N/A   Clear
6:52 AM 21.9 °F 17.2 °F 16.0 °F 78% 30.45 in 10.0 mi NNE 3.5 mph - N/A   Clear
7:52 AM 27.0 °F 20.5 °F 19.0 °F 72% 30.47 in 10.0 mi NNE 5.8 mph - N/A   Clear
8:52 AM 30.0 °F 24.1 °F 19.9 °F 66% 30.46 in 10.0 mi Variable 5.8 mph - N/A   Clear
9:52 AM 32.0 °F 25.6 °F 19.9 °F 61% 30.46 in 10.0 mi NE 6.9 mph - N/A   Clear
10:52 AM 35.1 °F 32.2 °F 19.9 °F 54% 30.47 in 10.0 mi Variable 3.5 mph - N/A   Clear
11:52 AM 37.9 °F - 21.0 °F 51% 30.45 in 10.0 mi Calm Calm - N/A   Clear
12:52 PM 41.0 °F - 21.0 °F 45% 30.43 in 10.0 mi Calm Calm - N/A   Clear
1:52 PM 43.0 °F 41.3 °F 21.0 °F 42% 30.38 in 10.0 mi South 3.5 mph - N/A   Clear
2:52 PM 45.0 °F 43.5 °F 21.9 °F 40% 30.36 in 10.0 mi Variable 3.5 mph - N/A   Clear
3:52 PM 45.0 °F - 21.0 °F 39% 30.35 in 10.0 mi Calm Calm - N/A   Clear
4:52 PM 44.1 °F - 21.9 °F 42% 30.32 in 10.0 mi Calm Calm - N/A   Clear
5:52 PM 43.0 °F - 23.0 °F 45% 30.30 in 10.0 mi Calm Calm - N/A   Clear
6:52 PM 39.0 °F - 23.0 °F 53% 30.30 in 10.0 mi Calm Calm - N/A   Clear
7:52 PM 36.0 °F - 25.0 °F 64% 30.30 in 10.0 mi Calm Calm - N/A   Clear
8:52 PM 37.0 °F - 25.0 °F 62% 30.29 in 10.0 mi Calm Calm - N/A   Clear
9:52 PM 36.0 °F 33.3 °F 26.1 °F 67% 30.30 in 10.0 mi East 3.5 mph - N/A   Clear
10:52 PM 37.0 °F 33.3 °F 25.0 °F 62% 30.27 in 10.0 mi ESE 4.6 mph - N/A   Clear
11:52 PM 36.0 °F 33.3 °F 26.1 °F 67% 30.26 in 10.0 mi East 3.5 mph - N/A   Clear